Caldwell, ID

11:23 PM MDT on June 28, 2017 (GMT -0600)
Caldwell Industrial

Weather History for KEUL - January, 2014

Change the Weather History Date:

Sunday, January 26, 2014

  Actual Average (KBOI) Record (KBOI)
Temperature  
Mean Temperature 24 °F -  
Max Temperature 26 °F 39 °F 57 °F (1896)
Min Temperature 23 °F 23 °F -8 °F (1957)
Degree Days  
Heating Degree Days 40    
Moisture  
Dew Point 17 °F    
Average Humidity 72    
Maximum Humidity 80    
Minimum Humidity 69    
Precipitation  
Precipitation 0.00 in - - ()
Sea Level Pressure  
Sea Level Pressure 30.32 in    
Wind  
Wind Speed 3 mph (North)    
Max Wind Speed 7 mph    
Max Gust Speed -    
Visibility 7 miles    
Events      
Averages and records for this station are not official NWS values.
T = Trace of Precipitation, MM = Missing Value Source: NWS Daily Summary

Daily Weather History Graph

Daily Weather History Graph

Search for Another Location

Airport or City:

Trip Planner

Search our weather history database for the weather conditions in past years. The results will help you decide how hot, cold, wet, or windy it might be!

Date:

Astronomy

Jan. 26, 2014 Rise Set
Actual Time 8:09 AM MST 5:49 PM MST
Civil Twilight 7:38 AM MST 6:20 PM MST
Nautical Twilight 7:03 AM MST 6:55 PM MST
Astronomical Twilight 6:29 AM MST 7:29 PM MST
Moon 3:51 AM MST (1/26) 1:42 PM MST (1/26)
Length of Visible Light 10h 42m
Length of Day
9h 40m
Waning Crescent, 23% of the Moon is Illuminated
Jan 26
Waning Crescent
Jan 30
New
Feb 6
First Quarter
Feb 14
Full
Feb 22
Last Quarter

Hourly Weather History & Observations

Time (MST) Temp. Windchill Dew Point Humidity Pressure Visibility Wind Dir Wind Speed Gust Speed Precip Events Conditions
12:15 AM 24.8 °F 16.9 °F 17.6 °F 74% 30.41 in 8.0 mi North 6.9 mph - N/A   Overcast
12:35 AM 24.8 °F 19.1 °F 17.6 °F 74% 30.41 in 8.0 mi NW 4.6 mph - N/A   Overcast
12:55 AM 24.8 °F 20.5 °F 17.6 °F 74% 30.41 in 7.0 mi North 3.5 mph - N/A   Overcast
1:15 AM 24.8 °F 17.9 °F 17.6 °F 74% 30.41 in 7.0 mi North 5.8 mph - N/A   Overcast
1:35 AM 24.8 °F 17.9 °F 17.6 °F 74% 30.41 in 7.0 mi North 5.8 mph - N/A   Overcast
1:55 AM 24.8 °F 19.1 °F 17.6 °F 74% 30.40 in 7.0 mi North 4.6 mph - N/A   Overcast
2:15 AM 24.8 °F 16.9 °F 17.6 °F 74% 30.40 in 7.0 mi North 6.9 mph - N/A   Overcast
2:35 AM 24.8 °F 17.9 °F 17.6 °F 74% 30.39 in 7.0 mi NNE 5.8 mph - N/A   Overcast
2:55 AM 24.8 °F 17.9 °F 17.6 °F 74% 30.39 in 6.0 mi NNE 5.8 mph - N/A   Overcast
3:15 AM 24.8 °F 19.1 °F 17.6 °F 74% 30.39 in 5.0 mi North 4.6 mph - N/A   Overcast
3:35 AM 24.8 °F 19.1 °F 17.6 °F 74% 30.39 in 5.0 mi North 4.6 mph - N/A   Overcast
3:55 AM 24.8 °F 19.1 °F 17.6 °F 74% 30.39 in 5.0 mi North 4.6 mph - N/A   Overcast
4:15 AM 24.8 °F 20.5 °F 17.6 °F 74% 30.38 in 4.0 mi North 3.5 mph - N/A   Overcast
4:35 AM 24.8 °F 20.5 °F 17.6 °F 74% 30.38 in 4.0 mi North 3.5 mph - N/A   Overcast
4:55 AM 24.8 °F 20.5 °F 17.6 °F 74% 30.38 in 3.0 mi North 3.5 mph - N/A   Overcast
5:15 AM 24.8 °F 17.9 °F 17.6 °F 74% 30.37 in 4.0 mi NNE 5.8 mph - N/A   Overcast
5:35 AM 24.8 °F 17.9 °F 17.6 °F 74% 30.38 in 3.0 mi North 5.8 mph - N/A   Overcast
5:55 AM 24.8 °F - 17.6 °F 74% 30.37 in 3.0 mi Calm Calm - N/A   Overcast
6:15 AM 23.0 °F 17.0 °F 17.6 °F 80% 30.37 in 4.0 mi West 4.6 mph - N/A   Overcast
6:35 AM 24.8 °F - 17.6 °F 74% 30.36 in 5.0 mi Calm Calm - N/A   Overcast
6:55 AM 24.8 °F - 15.8 °F 69% 30.36 in 4.0 mi Calm Calm - N/A   Overcast
7:15 AM 24.8 °F - 15.8 °F 69% 30.36 in 4.0 mi Calm Calm - N/A   Overcast
7:35 AM 24.8 °F - 17.6 °F 74% 30.36 in 5.0 mi Calm Calm - N/A   Overcast
7:55 AM 24.8 °F - 17.6 °F 74% 30.36 in 5.0 mi Calm Calm - N/A   Overcast
8:15 AM 24.8 °F - 17.6 °F 74% 30.36 in 3.0 mi Calm Calm - N/A   Overcast
8:35 AM 24.8 °F 20.5 °F 17.6 °F 74% 30.36 in 4.0 mi West 3.5 mph - N/A   Overcast
8:55 AM 24.8 °F - 17.6 °F 74% 30.36 in 5.0 mi Calm Calm - N/A   Overcast
9:15 AM 23.0 °F - 15.8 °F 74% 30.36 in 5.0 mi Calm Calm - N/A   Overcast
9:35 AM 24.8 °F 20.5 °F 15.8 °F 69% 30.36 in 5.0 mi NNW 3.5 mph - N/A   Overcast
9:55 AM 24.8 °F 19.1 °F 17.6 °F 74% 30.36 in 5.0 mi North 4.6 mph - N/A   Overcast
10:15 AM 24.8 °F 20.5 °F 17.6 °F 74% 30.36 in 5.0 mi North 3.5 mph - N/A   Overcast
10:35 AM 24.8 °F 19.1 °F 17.6 °F 74% 30.36 in 5.0 mi NW 4.6 mph - N/A   Overcast
10:55 AM 24.8 °F 20.5 °F 17.6 °F 74% 30.37 in 6.0 mi North 3.5 mph - N/A   Overcast
11:15 AM 24.8 °F - 17.6 °F 74% 30.37 in 8.0 mi Calm Calm - N/A   Overcast
11:35 AM 24.8 °F - 17.6 °F 74% 30.36 in 7.0 mi Calm Calm - N/A   Overcast
11:55 AM 24.8 °F 20.5 °F 15.8 °F 69% 30.35 in 8.0 mi ENE 3.5 mph - N/A   Overcast
12:15 PM 24.8 °F - 15.8 °F 69% 30.34 in 8.0 mi Calm Calm - N/A   Overcast
12:35 PM 24.8 °F - 17.6 °F 74% 30.32 in 9.0 mi Calm Calm - N/A   Overcast
12:55 PM 24.8 °F 20.5 °F 17.6 °F 74% 30.32 in 10.0 mi East 3.5 mph - N/A   Overcast
1:15 PM 24.8 °F 19.1 °F 17.6 °F 74% 30.31 in 10.0 mi North 4.6 mph - N/A   Overcast
1:35 PM 24.8 °F - 15.8 °F 69% 30.30 in 10.0 mi Calm Calm - N/A   Overcast
1:55 PM 24.8 °F - 17.6 °F 74% 30.29 in 10.0 mi Calm Calm - N/A   Overcast
2:15 PM 26.6 °F 22.6 °F 17.6 °F 69% 30.28 in 10.0 mi NNW 3.5 mph - N/A   Overcast
2:35 PM 24.8 °F 20.5 °F 17.6 °F 74% 30.27 in 10.0 mi ENE 3.5 mph - N/A   Overcast
2:55 PM 24.8 °F 20.5 °F 15.8 °F 69% 30.26 in 10.0 mi West 3.5 mph - N/A   Overcast
3:15 PM 24.8 °F 20.5 °F 15.8 °F 69% 30.26 in 10.0 mi NNW 3.5 mph - N/A   Overcast
3:35 PM 24.8 °F - 15.8 °F 69% 30.26 in 10.0 mi Calm Calm - N/A   Overcast
3:55 PM 24.8 °F - 15.8 °F 69% 30.26 in 10.0 mi Calm Calm - N/A   Overcast
4:15 PM 24.8 °F - 15.8 °F 69% 30.25 in 10.0 mi Calm Calm - N/A   Overcast
4:35 PM 24.8 °F 19.1 °F 15.8 °F 69% 30.25 in 10.0 mi NW 4.6 mph - N/A   Overcast
4:55 PM 24.8 °F - 15.8 °F 69% 30.25 in 10.0 mi Calm Calm - N/A   Overcast
5:15 PM 24.8 °F 20.5 °F 15.8 °F 69% 30.25 in 10.0 mi North 3.5 mph - N/A   Overcast
5:35 PM 24.8 °F 19.1 °F 17.6 °F 74% 30.25 in 10.0 mi NNW 4.6 mph - N/A   Overcast
5:55 PM 24.8 °F 20.5 °F 15.8 °F 69% 30.24 in 10.0 mi West 3.5 mph - N/A   Overcast
6:15 PM 24.8 °F - 15.8 °F 69% 30.23 in 10.0 mi Calm Calm - N/A   Overcast
6:35 PM 24.8 °F - 15.8 °F 69% 30.23 in 10.0 mi Calm Calm - N/A   Overcast
6:55 PM 24.8 °F - 15.8 °F 69% 30.24 in 10.0 mi Calm Calm - N/A   Overcast
7:15 PM 24.8 °F - 15.8 °F 69% 30.24 in 10.0 mi Calm Calm - N/A   Overcast
7:35 PM 24.8 °F - 15.8 °F 69% 30.24 in 10.0 mi Calm Calm - N/A   Overcast
7:55 PM 24.8 °F - 15.8 °F 69% 30.24 in 10.0 mi Calm Calm - N/A   Overcast
8:15 PM 24.8 °F 20.5 °F 15.8 °F 69% 30.24 in 10.0 mi SE 3.5 mph - N/A   Overcast
8:35 PM 24.8 °F - 17.6 °F 74% 30.23 in 10.0 mi Calm Calm - N/A   Overcast
8:55 PM 24.8 °F 19.1 °F 17.6 °F 74% 30.24 in 7.0 mi WSW 4.6 mph - N/A   Overcast
9:15 PM 24.8 °F - 17.6 °F 74% 30.23 in 6.0 mi Calm Calm - N/A   Overcast
9:35 PM 24.8 °F - 17.6 °F 74% 30.23 in 5.0 mi Calm Calm - N/A   Overcast
9:55 PM 24.8 °F - 17.6 °F 74% 30.24 in 7.0 mi Calm Calm - N/A   Overcast
10:15 PM 24.8 °F - 17.6 °F 74% 30.24 in 8.0 mi Calm Calm - N/A   Overcast
10:35 PM 24.8 °F 19.1 °F 17.6 °F 74% 30.23 in 5.0 mi SSW 4.6 mph - N/A   Overcast
10:55 PM 24.8 °F - 17.6 °F 74% 30.23 in 6.0 mi Calm Calm - N/A   Overcast
11:15 PM 24.8 °F - 17.6 °F 74% 30.24 in 8.0 mi Calm Calm - N/A   Overcast
11:35 PM 24.8 °F - 17.6 °F 74% 30.23 in 5.0 mi Calm Calm - N/A   Overcast
11:55 PM 24.8 °F 19.1 °F 17.6 °F 74% 30.24 in 9.0 mi South 4.6 mph - N/A   Overcast